• In Netherlands
  • List of Countries
  • For 7 days
  • Water Temperature
  • Satellite Maps
  • Weather Map
  • Weather Widgets
  • user-avatar
    Login

    Hourly Weather La Rioja

    Today, 21 August, Monday

    Time Temperature Precipitation Wind Pressure Humidity
    00:00 +15°C° 0 mm 2 mps 720 mmHg 41%
    01:00 +15°C° 0 mm 2 mps 719 mmHg 42%
    02:00 +14°C° 0 mm 2 mps 719 mmHg 43%
    03:00 +14°C° 0 mm 2 mps 719 mmHg 43%
    04:00 +14°C° 0 mm 2 mps 718 mmHg 44%
    05:00 +13°C° 0 mm 2 mps 718 mmHg 45%
    06:00 +14°C° 0 mm 2 mps 718 mmHg 44%
    07:00 +14°C° 0 mm 2 mps 719 mmHg 42%
    08:00 +15°C° 0 mm 2 mps 719 mmHg 41%
    09:00 +17°C° 0 mm 2 mps 718 mmHg 36%
    10:00 +18°C° 0 mm 2 mps 718 mmHg 32%
    11:00 +20°C° 0 mm 2 mps 718 mmHg 28%
    12:00 +21°C° 0 mm 2 mps 717 mmHg 26%
    13:00 +24°C° 0 mm 2 mps 717 mmHg 24%
    14:00 +25°C° 0 mm 2 mps 716 mmHg 22%
    15:00 +25°C° 0 mm 2 mps 716 mmHg 21%
    16:00 +25°C° 0 mm 2 mps 715 mmHg 21%
    17:00 +26°C° 0 mm 3 mps 715 mmHg 21%
    18:00 +24°C° 0 mm 2 mps 714 mmHg 23%
    19:00 +21°C° 0 mm 2 mps 714 mmHg 26%
    20:00 +20°C° 0 mm 2 mps 714 mmHg 29%
    21:00 +19°C° 0 mm 2 mps 714 mmHg 30%
    22:00 +19°C° 0 mm 2 mps 714 mmHg 31%
    23:00 +18°C° 0 mm 2 mps 713 mmHg 32%

    Tomorrow, 22 August, Tuesday

    Time Temperature Precipitation Wind Pressure Humidity
    00:00 +17°C° 0 mm 2 mps 713 mmHg 32%
    01:00 +17°C° 0 mm 2 mps 712 mmHg 32%
    02:00 +16°C° 0 mm 2 mps 711 mmHg 32%
    03:00 +16°C° 0 mm 2 mps 711 mmHg 32%
    04:00 +16°C° 0 mm 2 mps 710 mmHg 33%
    05:00 +15°C° 0 mm 2 mps 709 mmHg 33%
    06:00 +16°C° 0 mm 2 mps 709 mmHg 30%
    07:00 +17°C° 0 mm 2 mps 709 mmHg 28%
    08:00 +17°C° 0 mm 2 mps 708 mmHg 26%
    09:00 +20°C° 0 mm 2 mps 708 mmHg 23%
    10:00 +22°C° 0 mm 3 mps 708 mmHg 20%
    11:00 +25°C° 0 mm 3 mps 707 mmHg 17%
    12:00 +26°C° 0 mm 3 mps 706 mmHg 16%
    13:00 +28°C° 0 mm 3 mps 705 mmHg 14%
    14:00 +29°C° 0 mm 3 mps 704 mmHg 13%
    15:00 +29°C° 0 mm 2 mps 704 mmHg 13%
    16:00 +29°C° 0 mm 2 mps 704 mmHg 13%
    17:00 +29°C° 0 mm 2 mps 704 mmHg 13%
    18:00 +27°C° 0 mm 2 mps 704 mmHg 15%
    19:00 +25°C° 0 mm 2 mps 704 mmHg 17%
    20:00 +23°C° 0 mm 2 mps 705 mmHg 19%
    21:00 +21°C° 0 mm 2 mps 705 mmHg 20%
    22:00 +21°C° 0 mm 2 mps 706 mmHg 21%
    23:00 +20°C° 0 mm 3 mps 706 mmHg 22%

    Day after tomorrow, 23 August, Wednesday

    Time Temperature Precipitation Wind Pressure Humidity
    00:00 +19°C° 0 mm 3 mps 706 mmHg 24%
    01:00 +19°C° 0 mm 3 mps 706 mmHg 25%
    02:00 +18°C° 0 mm 3 mps 706 mmHg 27%
    03:00 +17°C° 0 mm 3 mps 707 mmHg 28%
    04:00 +17°C° 0 mm 3 mps 707 mmHg 29%
    05:00 +16°C° 0 mm 3 mps 707 mmHg 30%
    06:00 +17°C° 0 mm 3 mps 708 mmHg 29%
    07:00 +18°C° 0 mm 3 mps 709 mmHg 28%
    08:00 +18°C° 0 mm 3 mps 710 mmHg 27%
    09:00 +20°C° 0 mm 4 mps 711 mmHg 24%
    10:00 +22°C° 0 mm 5 mps 712 mmHg 21%
    11:00 +24°C° 0 mm 7 mps 713 mmHg 19%
    12:00 +24°C° 0 mm 6 mps 712 mmHg 18%
    13:00 +26°C° 0 mm 6 mps 712 mmHg 17%
    14:00 +26°C° 0 mm 5 mps 711 mmHg 16%
    15:00 +26°C° 0 mm 5 mps 711 mmHg 18%
    16:00 +25°C° 0 mm 4 mps 711 mmHg 19%
    17:00 +25°C° 0 mm 3 mps 710 mmHg 20%
    18:00 +22°C° 0 mm 3 mps 711 mmHg 23%
    19:00 +21°C° 0 mm 2 mps 711 mmHg 27%
    20:00 +19°C° 0 mm 2 mps 712 mmHg 30%
    21:00 +18°C° 0 mm 2 mps 712 mmHg 33%
    22:00 +18°C° 0 mm 2 mps 712 mmHg 36%
    23:00 +17°C° 0 mm 2 mps 712 mmHg 38%

    24 August, Thursday

    Time Temperature Precipitation Wind Pressure Humidity
    00:00 +17°C° 0 mm 2 mps 711 mmHg 40%
    01:00 +16°C° 0 mm 2 mps 711 mmHg 42%
    02:00 +16°C° 0 mm 2 mps 710 mmHg 44%
    03:00 +15°C° 0 mm 2 mps 710 mmHg 45%
    04:00 +15°C° 0 mm 2 mps 709 mmHg 45%
    05:00 +15°C° 0 mm 2 mps 709 mmHg 46%
    06:00 +16°C° 0 mm 2 mps 709 mmHg 44%
    07:00 +17°C° 0 mm 2 mps 709 mmHg 42%
    08:00 +17°C° 0 mm 2 mps 710 mmHg 40%
    09:00 +19°C° 0 mm 2 mps 710 mmHg 37%
    10:00 +21°C° 0 mm 2 mps 709 mmHg 34%
    11:00 +24°C° 0 mm 2 mps 709 mmHg 31%
    12:00 +26°C° 0 mm 2 mps 708 mmHg 29%
    13:00 +27°C° 0 mm 2 mps 708 mmHg 27%
    14:00 +28°C° 0 mm 3 mps 707 mmHg 25%
    15:00 +28°C° 0 mm 3 mps 707 mmHg 25%
    16:00 +28°C° 0 mm 3 mps 707 mmHg 25%
    17:00 +29°C° 0 mm 3 mps 707 mmHg 25%
    18:00 +27°C° 0 mm 2 mps 708 mmHg 28%
    19:00 +25°C° 0 mm 2 mps 708 mmHg 31%
    20:00 +23°C° 0 mm 2 mps 709 mmHg 33%
    21:00 +23°C° 0 mm 2 mps 709 mmHg 36%
    22:00 +21°C° 0 mm 2 mps 709 mmHg 38%
    23:00 +21°C° 0 mm 2 mps 709 mmHg 41%

    25 August, Friday

    Time Temperature Precipitation Wind Pressure Humidity
    00:00 +20°C° 0 mm 2 mps 709 mmHg 41%
    01:00 +20°C° 0 mm 2 mps 709 mmHg 40%
    02:00 +20°C° 0 mm 2 mps 708 mmHg 40%
    03:00 +19°C° 0 mm 2 mps 708 mmHg 40%
    04:00 +18°C° 0 mm 2 mps 709 mmHg 41%
    05:00 +19°C° 0 mm 1 mps 709 mmHg 41%
    06:00 +18°C° 0 mm 2 mps 710 mmHg 39%
    07:00 +19°C° 0 mm 3 mps 711 mmHg 37%
    08:00 +20°C° 0 mm 3 mps 712 mmHg 34%
    09:00 +21°C° 0 mm 4 mps 712 mmHg 30%
    10:00 +22°C° 0 mm 6 mps 713 mmHg 26%
    11:00 +24°C° 0 mm 7 mps 713 mmHg 22%
    12:00 +24°C° 0 mm 7 mps 713 mmHg 23%
    13:00 +26°C° 0 mm 7 mps 713 mmHg 23%
    14:00 +26°C° 0 mm 7 mps 713 mmHg 24%
    15:00 +26°C° 0 mm 7 mps 713 mmHg 26%
    16:00 +24°C° 0 mm 7 mps 713 mmHg 29%
    17:00 +23°C° 0 mm 7 mps 714 mmHg 31%
    18:00 +22°C° 0 mm 6 mps 714 mmHg 37%
    19:00 +20°C° 0 mm 5 mps 715 mmHg 43%
    20:00 +17°C° 0 mm 5 mps 716 mmHg 49%
    21:00 +18°C° 0 mm 4 mps 716 mmHg 51%
    22:00 +17°C° 0 mm 3 mps 716 mmHg 54%
    23:00 +16°C° 0 mm 2 mps 717 mmHg 57%

    26 August, Saturday

    Time Temperature Precipitation Wind Pressure Humidity
    00:00 +16°C° 0 mm 2 mps 716 mmHg 60%
    01:00 +15°C° 0 mm 2 mps 716 mmHg 62%
    02:00 +14°C° 0 mm 2 mps 716 mmHg 64%
    03:00 +14°C° 0 mm 1 mps 716 mmHg 65%
    04:00 +13°C° 0 mm 1 mps 716 mmHg 66%
    05:00 +13°C° 0 mm 1 mps 715 mmHg 67%
    06:00 +14°C° 0 mm 1 mps 716 mmHg 64%
    07:00 +14°C° 0 mm 2 mps 716 mmHg 62%
    08:00 +15°C° 0 mm 2 mps 716 mmHg 59%
    09:00 +17°C° 0 mm 2 mps 716 mmHg 54%
    10:00 +18°C° 0 mm 2 mps 715 mmHg 48%
    11:00 +20°C° 0 mm 2 mps 715 mmHg 43%
    12:00 +21°C° 0 mm 3 mps 714 mmHg 40%
    13:00 +22°C° 0 mm 3 mps 713 mmHg 36%
    14:00 +25°C° 0 mm 3 mps 712 mmHg 33%
    15:00 +25°C° 0 mm 3 mps 712 mmHg 33%
    16:00 +25°C° 0 mm 3 mps 711 mmHg 33%
    17:00 +25°C° 0 mm 2 mps 711 mmHg 33%
    18:00 +24°C° 0 mm 3 mps 711 mmHg 37%
    19:00 +22°C° 0 mm 3 mps 712 mmHg 40%
    20:00 +21°C° 0 mm 3 mps 712 mmHg 44%
    21:00 +20°C° 0 mm 3 mps 712 mmHg 47%
    22:00 +19°C° 0 mm 2 mps 712 mmHg 49%
    23:00 +18°C° 0 mm 2 mps 711 mmHg 52%
    Show more